Location: Highland Meadows Observing Site
(48.4428°N, 114.5461°W)
Time: 11:03:05
(UTC-06:00)

Amateur Radio Satellites - All Passes

Search period start: 04 July 2015 10:33
Search period end: 05 July 2015 10:33
Location: Highland Meadows Observing Site, 48.4428°N, 114.5461°W

Satellite Date Start Highest point End Downlink Frequencies (MHz)
Time Altitude Azimuth
QB50P2 04 Jul 10:33:22 10:36:00 17° 61° (ENE) 10:38:45 145.880/145.840
POPSAT HIP 1 04 Jul 10:34:12 10:36:48 16° 61° (ENE) 10:39:31 437.405
BEESAT 2 04 Jul 10:36:20 10:39:36 22° 326° (NW) 10:42:51 435.950
FUNcube-1 04 Jul 10:37:03 10:39:42 17° 89° (E) 10:42:30 145.935
CINEMA 3 04 Jul 10:43:29 10:47:37 59° 101° (E) 10:51:47 145.822/145.860
UWE-3 04 Jul 10:48:22 10:51:57 27° 94° (E) 10:55:38 435.000/436.395/437.385
GOMX 1 04 Jul 10:49:14 10:53:11 37° 291° (WNW) 10:57:00 467.674
DANDE 04 Jul 10:55:27 11:00:37 23° 293° (WNW) 11:04:44 436.750
VERMONT LUNAR 04 Jul 10:59:26 11:01:46 19° 181° (S) 11:04:07 437.305
ANTELSAT 04 Jul 11:07:04 11:11:20 71° 73° (ENE) 11:15:36 437.575/2403.000
QB50P1 04 Jul 11:11:44 11:15:36 35° 68° (ENE) 11:19:30 145.935-145.965
BRITE-PL 04 Jul 11:13:59 11:16:44 16° 300° (WNW) 11:19:16 437.365/2234.400
PHONESAT 2.4 04 Jul 11:14:41 11:17:02 17° 167° (SSE) 11:19:25 2401.200-2431.200
SEEDS 04 Jul 11:18:15 11:22:15 39° 290° (WNW) 11:26:13 437.485
TIGRISAT 04 Jul 11:19:30 11:23:47 90° 255° (WSW) 11:28:03 435.000
DX 1 04 Jul 11:22:02 11:24:59 18° 90° (E) 11:28:03 434.975-435.025
NANOSAT C BR1 04 Jul 11:25:46 11:29:50 48° 71° (ENE) 11:33:57 145.865
AAUSAT CUBESAT 2 04 Jul 11:29:46 11:33:46 42° 290° (WNW) 11:37:44 437.432
DUCHIFAT 1 04 Jul 11:32:42 11:36:50 55° 72° (ENE) 11:40:59 145.980
CUBEBUG 2 04 Jul 11:33:00 11:37:13 85° 285° (WNW) 11:41:30 437.445
DOVE 4 04 Jul 11:34:40 11:37:56 22° 296° (WNW) 11:41:04 437.250
ZACube-1 04 Jul 11:35:57 11:40:09 66° 101° (ESE) 11:44:24 437.345
POLYITAN 1 04 Jul 11:37:31 11:41:43 65° 73° (ENE) 11:45:56 437.675
UKube-1 04 Jul 11:42:43 11:46:21 26° 94° (E) 11:50:02 .
GONETS M04 04 Jul 11:42:49 11:51:01 41° 293° (WNW) 11:59:08
Oscar 11 04 Jul 11:45:11 11:49:31 63° 287° (WNW) 11:53:49 145.826/435.025
DELFI C3 04 Jul 11:46:14 11:50:20 81° 285° (WNW) 11:54:25 145.870
BUGSAT 1 04 Jul 11:50:18 11:54:27 58° 72° (ENE) 11:58:36 437.445
50 SAT 04 Jul 11:52:58 11:56:04 23° 93° (E) 11:59:15 437.505
AIST 2 04 Jul 11:54:22 11:57:24 18° 331° (NNW) 12:00:23 435.215
HO-68 04 Jul 11:55:20 12:01:50 38° 300° (WNW) 12:08:16 435.675
HUMSAT D 04 Jul 11:56:06 12:00:08 47° 99° (E) 12:04:12 437.325/437.525
COMPASS 1 04 Jul 11:56:19 11:59:36 22° 296° (WNW) 12:02:49 437.405
AISAT 04 Jul 11:58:30 12:02:07 25° 93° (E) 12:05:47 437.250
Cosmos 2499 04 Jul 11:59:15 12:06:15 75° 96° (E) 12:13:28 435.465 / 435.565
UNISAT 6 04 Jul 11:59:42 12:03:38 34° 264° (W) 12:07:33 437.425
CUTE 1.7 + AOD 2 04 Jul 12:06:53 12:09:02 13° 300° (WNW) 12:11:01 437.475
QB50P2 04 Jul 12:07:16 12:11:30 62° 259° (W) 12:15:43 145.880/145.840
POPSAT HIP 1 04 Jul 12:08:02 12:12:15 63° 259° (WSW) 12:16:28 437.405
ISS 04 Jul 12:08:34 12:11:43 46° 355° (N) 12:14:53 145.825
CANX-2 04 Jul 12:10:46 12:12:18 12° 302° (WNW) 12:13:39 2200.000
FUNcube-1 04 Jul 12:12:17 12:16:24 55° 287° (WNW) 12:20:33 145.935
CUBEBUG 1 04 Jul 12:16:58 12:20:19 21° 91° (E) 12:23:43 437.445
CINEMA 3 04 Jul 12:21:48 12:24:27 16° 298° (WNW) 12:27:01 145.822/145.860
UWE-3 04 Jul 12:24:46 12:28:33 33° 292° (WNW) 12:32:20 435.000/436.395/437.385
RS-15 04 Jul 12:27:17 12:38:54 76° 237° (WSW) 12:50:58 29.354- 29.394
ESTCUBE 1 04 Jul 12:29:46 12:33:55 34° 96° (E) 12:38:03 437.505/2401.250
VERMONT LUNAR 04 Jul 12:36:28 12:38:03 13° 197° (SSW) 12:39:36 437.305
ANTELSAT 04 Jul 12:46:34 12:48:41 13° 273° (W) 12:50:38 437.575/2403.000
VELOX 1 04 Jul 12:47:21 12:51:47 72° 103° (ESE) 12:56:11 145.980
QB50P1 04 Jul 12:47:58 12:51:34 25° 267° (W) 12:55:05 145.935-145.965
PHONESAT 2.4 04 Jul 12:51:43 12:54:26 22° 183° (S) 12:57:09 2401.200-2431.200
DX 1 04 Jul 12:57:20 13:01:36 53° 289° (WNW) 13:05:49 434.975-435.025
NANOSAT C BR1 04 Jul 13:02:52 13:05:58 19° 269° (W) 13:08:58 145.865
AO-7 04 Jul 13:08:13 13:09:45 11° 27° (NNE) 13:11:37 29.400- 29.500
DUCHIFAT 1 04 Jul 13:10:13 13:13:01 17° 270° (W) 13:15:41 145.980
CUBEBUG 2 04 Jul 13:11:58 13:13:19 11° 302° (WNW) 13:14:30 437.445
ZACube-1 04 Jul 13:13:31 13:16:06 16° 299° (WNW) 13:18:34 437.345
POLYITAN 1 04 Jul 13:15:44 13:18:07 14° 272° (W) 13:20:21 437.675
UKube-1 04 Jul 13:18:36 13:22:35 36° 293° (WNW) 13:26:32 .
YUBILEINY 04 Jul 13:18:53 13:24:29 19° 51° (NE) 13:30:26 435.215
SPROUT 04 Jul 13:19:03 13:22:45 28° 94° (E) 13:26:29 437.525
DELFI C3 04 Jul 13:24:00 13:24:46 10° 302° (WNW) 13:25:20 145.870
Oscar 19 04 Jul 13:24:58 13:29:41 39° 67° (ENE) 13:34:29 437.125/150
50 SAT 04 Jul 13:27:14 13:30:47 34° 291° (WNW) 13:34:20 437.505
BUGSAT 1 04 Jul 13:27:38 13:30:19 16° 271° (W) 13:32:52 437.445
Gurwin Techsat 1B 04 Jul 13:31:42 13:35:00 17° 57° (ENE) 13:38:28 435.225
HUMSAT D 04 Jul 13:32:32 13:35:36 20° 296° (WNW) 13:38:35 437.325/437.525
AISAT 04 Jul 13:34:42 13:38:51 39° 292° (WNW) 13:42:56 437.250
ITAMSAT 1 04 Jul 13:37:56 13:41:24 19° 58° (ENE) 13:45:01 435.822/435.867
ISS 04 Jul 13:45:10 13:48:25 63° 16° (NNE) 13:51:38 145.825
HO-68 04 Jul 13:46:25 13:47:45 10° 322° (NW) 13:48:47 435.675
GONETS M04 04 Jul 13:49:53 13:51:14 10° 322° (NW) 13:52:02
CUBEBUG 1 04 Jul 13:52:43 13:56:55 44° 290° (WNW) 14:01:02 437.445
Cosmos 2499 04 Jul 13:54:44 14:00:21 24° 300° (WNW) 14:05:55 435.465 / 435.565
TISAT 1 04 Jul 14:00:43 14:04:48 49° 99° (E) 14:08:52 437.305
ESTCUBE 1 04 Jul 14:06:43 14:10:44 31° 294° (WNW) 14:14:41 437.505/2401.250
VELOX 1 04 Jul 14:25:07 14:27:51 16° 301° (WNW) 14:30:26 145.980
BEESAT 04 Jul 14:25:29 14:28:41 18° 89° (E) 14:32:03 436.000
PHONESAT 2.4 04 Jul 14:30:02 14:31:46 13° 200° (SSW) 14:33:27 2401.200-2431.200
SWISSCUBE 04 Jul 14:40:32 14:44:34 27° 93° (E) 14:48:39 437.505
RS-15 04 Jul 14:41:13 14:49:45 23° 259° (WSW) 14:57:51 29.354- 29.394
ITUPSAT 1 04 Jul 14:45:49 14:49:53 27° 93° (E) 14:53:59 437.325
AO-7 04 Jul 14:53:01 14:59:59 32° 51° (NE) 15:07:07 29.400- 29.500
SPROUT 04 Jul 14:55:01 14:58:53 33° 292° (WNW) 15:02:40 437.525
Oscar 19 04 Jul 15:04:33 15:09:09 32° 265° (W) 15:13:43 437.125/150
Gurwin Techsat 1B 04 Jul 15:09:02 15:14:21 87° 250° (WSW) 15:19:45 435.225
YUBILEINY 04 Jul 15:14:35 15:23:20 71° 77° (ENE) 15:32:07 435.215
ITAMSAT 1 04 Jul 15:15:07 15:20:21 79° 255° (WSW) 15:25:39 435.822/435.867
AIST 2 04 Jul 15:16:35 15:18:07 12° 18° (NNE) 15:19:43 435.215
ISS 04 Jul 15:21:43 15:24:41 33° 214° (SW) 15:27:39 145.825
BEESAT 3 04 Jul 15:22:59 15:26:21 24° 36° (NE) 15:29:42 437.485
JAS-2 04 Jul 15:25:53 15:30:40 39° 65° (ENE) 15:35:48 435.910
BEESAT 2 04 Jul 15:35:11 15:38:37 25° 36° (NE) 15:42:03 435.950
TISAT 1 04 Jul 15:37:12 15:40:17 20° 297° (WNW) 15:43:15 437.305
KKS-1 04 Jul 15:39:37 15:42:29 17° 89° (E) 15:45:29 437.445
Cosmos 2491 04 Jul 15:40:26 15:48:35 45° 88° (E) 15:56:49 435.465 / 435.565
HORYU 2 04 Jul 15:42:01 15:45:53 31° 66° (ENE) 15:49:50 437.375
BEESAT 04 Jul 16:02:15 16:07:01 63° 289° (WNW) 16:11:45 436.000
PCSat 04 Jul 16:03:06 16:07:20 25° 110° (ESE) 16:11:43 145.827
SWISSCUBE 04 Jul 16:18:02 16:22:36 43° 292° (WNW) 16:27:07 437.505
ITUPSAT 1 04 Jul 16:23:23 16:27:56 42° 292° (WNW) 16:32:27 437.325
STARS 04 Jul 16:30:47 16:34:45 33° 96° (E) 16:38:44 437.465
O/OREOS (USA 219) 04 Jul 16:41:41 16:45:07 21° 48° (NE) 16:48:37 437.305
SO-50 04 Jul 16:43:07 16:44:55 12° 109° (ESE) 16:47:00 436.795
AO-7 04 Jul 16:43:47 16:52:09 79° 252° (WSW) 17:00:35 29.400- 29.500
AIST 1 04 Jul 16:44:50 16:49:13 77° 98° (E) 16:53:39
Gurwin Techsat 1B 04 Jul 16:52:31 16:55:15 14° 275° (W) 16:57:43 435.225
AIST 2 04 Jul 16:54:01 16:57:56 35° 41° (NE) 17:01:48 435.215
ITAMSAT 1 04 Jul 16:58:47 17:00:51 12° 276° (W) 17:02:37 435.822/435.867
BEESAT 3 04 Jul 17:00:35 17:04:36 58° 237° (WSW) 17:08:33 437.485
Cosmos 2504 04 Jul 17:08:40 17:15:41 45° 71° (ENE) 17:23:14 435.465 / 435.565
JAS-2 04 Jul 17:11:22 17:16:00 31° 267° (W) 17:20:49 435.910
YUBILEINY 04 Jul 17:12:14 17:19:34 30° 278° (W) 17:26:41 435.215
BEESAT 2 04 Jul 17:12:57 17:16:59 55° 237° (WSW) 17:20:55 435.950
KKS-1 04 Jul 17:15:10 17:19:33 58° 288° (WNW) 17:23:54 437.445
HORYU 2 04 Jul 17:18:33 17:22:31 31° 264° (W) 17:26:29 437.375
MOZHAYETS 4 04 Jul 17:33:18 17:37:20 29° 93° (E) 17:41:25
Cosmos 2491 04 Jul 17:36:57 17:45:29 49° 290° (WNW) 17:53:57 435.465 / 435.565
BEESAT 04 Jul 17:42:55 17:44:00 11° 307° (NW) 17:44:53 436.000
PCSat 04 Jul 17:45:01 17:50:23 63° 308° (NW) 17:55:49 145.827
CUTE-I 04 Jul 17:52:03 17:56:31 28° 62° (ENE) 18:01:04 437.470
STARS 04 Jul 18:07:19 18:11:08 29° 294° (WNW) 18:14:54 437.465
SO-50 04 Jul 18:19:57 18:24:43 78° 127° (SE) 18:29:39 436.795
O/OREOS (USA 219) 04 Jul 18:20:29 18:24:58 61° 248° (WSW) 18:29:26 437.305
AIST 1 04 Jul 18:25:12 18:27:32 14° 298° (WNW) 18:29:42
Cubesat XI-IV 04 Jul 18:25:26 18:30:34 50° 68° (ENE) 18:35:48 437.490
AIST 2 04 Jul 18:32:38 18:36:31 35° 241° (WSW) 18:40:18 435.215
AO-7 04 Jul 18:40:50 18:46:30 19° 275° (W) 18:51:47 29.400- 29.500
CUSAT 1 04 Jul 18:44:58 18:45:34 11° 62° (ENE) 18:46:16 437.405
HO-68 04 Jul 18:56:16 19:00:01 16° 45° (NE) 19:04:01 435.675
Cosmos 2504 04 Jul 19:01:00 19:07:56 43° 271° (W) 19:15:15 435.465 / 435.565
MOZHAYETS 4 04 Jul 19:10:21 19:14:39 37° 292° (WNW) 19:18:54
BRITE-PL 04 Jul 19:11:34 19:15:06 19° 62° (ENE) 19:18:39 437.365/2234.400
CUTE-I 04 Jul 19:31:07 19:36:21 51° 261° (W) 19:41:37 437.470
PCSat 04 Jul 19:31:09 19:34:56 19° 332° (NNW) 19:38:39 145.827
DOVE 4 04 Jul 19:32:07 19:32:45 10° 57° (ENE) 19:33:37 437.250
CUBESAT XI-V 04 Jul 19:37:15 19:41:47 45° 98° (E) 19:46:16 437.345
Cosmos 2491 04 Jul 19:41:27 19:45:17 13° 318° (NW) 19:48:37 435.465 / 435.565
PRISM 04 Jul 19:46:10 19:48:55 17° 90° (E) 19:51:45 437.425
DANDE 04 Jul 19:48:54 19:51:50 46° 73° (ENE) 19:54:24 436.750
GONETS M04 04 Jul 19:50:50 19:58:27 33° 63° (ENE) 20:06:11
CUTE 1.7 + AOD 2 04 Jul 19:52:51 19:54:31 12° 59° (ENE) 19:56:22 437.475
CANX-2 04 Jul 19:55:39 19:57:51 14° 60° (ENE) 20:00:13 2200.000
SO-50 04 Jul 20:01:45 20:05:49 26° 328° (NNW) 20:09:56 436.795
Cubesat XI-IV 04 Jul 20:06:24 20:10:58 27° 268° (W) 20:15:29 437.490
CINEMA 3 04 Jul 20:15:01 20:16:32 12° 59° (ENE) 20:18:13 145.822/145.860
GOMX 1 04 Jul 20:22:25 20:27:10 43° 70° (ENE) 20:31:41 467.674
CUSAT 1 04 Jul 20:26:06 20:28:22 23° 266° (W) 20:30:31 437.405
STRAND 1 04 Jul 20:37:52 20:42:59 59° 101° (E) 20:48:03 437.568
SEEDS 04 Jul 20:38:37 20:42:05 27° 66° (ENE) 20:45:40 437.485
HO-68 04 Jul 20:39:29 20:46:26 58° 66° (ENE) 20:53:26 435.675
BRITE-PL 04 Jul 20:47:45 20:53:12 76° 257° (WSW) 20:58:18 437.365/2234.400
AAUSAT CUBESAT 2 04 Jul 20:49:12 20:52:30 24° 65° (ENE) 20:55:54 437.432
CUBEBUG 2 04 Jul 21:00:22 21:02:50 16° 62° (ENE) 21:05:26 437.445
ZACube-1 04 Jul 21:03:04 21:03:57 11° 58° (ENE) 21:05:01 437.345
DELFI C3 04 Jul 21:04:38 21:06:15 12° 60° (ENE) 21:08:01 145.870
DOVE 4 04 Jul 21:05:04 21:09:52 68° 74° (ENE) 21:14:23 437.250
Oscar 11 04 Jul 21:08:44 21:11:50 20° 63° (ENE) 21:15:02 145.826/435.025
COMPASS 1 04 Jul 21:14:45 21:18:45 48° 71° (ENE) 21:22:48 437.405
CUBESAT XI-V 04 Jul 21:15:08 21:19:00 25° 296° (WNW) 21:22:45 437.345
PCSat 04 Jul 21:19:34 21:20:39 10° 358° (N) 21:21:42 145.827
PRISM 04 Jul 21:20:35 21:24:42 53° 289° (WNW) 21:28:47 437.425
CUTE 1.7 + AOD 2 04 Jul 21:25:37 21:29:51 87° 264° (W) 21:34:06 437.475
CANX-2 04 Jul 21:29:04 21:33:16 73° 258° (WSW) 21:37:31 2200.000
FUNcube-1 04 Jul 21:36:33 21:39:40 21° 65° (ENE) 21:42:53 145.935
Cosmos 2499 04 Jul 21:44:32 21:51:29 36° 67° (ENE) 21:59:00 435.465 / 435.565
SO-50 04 Jul 21:45:47 21:48:02 13° 352° (N) 21:50:17 436.795
GONETS M04 04 Jul 21:47:26 21:56:03 66° 266° (W) 22:04:35
CINEMA 3 04 Jul 21:48:42 21:53:11 86° 76° (ENE) 21:57:29 145.822/145.860
UWE-3 04 Jul 21:49:10 21:53:01 35° 69° (ENE) 21:56:51 435.000/436.395/437.385
AUBIESAT-1 04 Jul 21:51:17 21:54:33 22° 99° (E) 21:58:03 437.475
GOMX 1 04 Jul 22:01:07 22:05:27 27° 267° (W) 22:09:30 467.674
SEEDS 04 Jul 22:13:58 22:17:47 34° 264° (W) 22:21:38 437.485
VELOX 1 04 Jul 22:14:25 22:16:47 15° 59° (ENE) 22:19:18 145.980
STRAND 1 04 Jul 22:17:46 22:21:51 23° 299° (WNW) 22:25:48 437.568
DX 1 04 Jul 22:20:59 22:24:37 26° 65° (ENE) 22:28:18 434.975-435.025
AAUSAT CUBESAT 2 04 Jul 22:24:04 22:27:56 37° 263° (W) 22:31:50 437.432
M-CUBED/EXP-1 PRIME 04 Jul 22:25:20 22:29:25 52° 106° (ESE) 22:33:49 437.505
HO-68 04 Jul 22:28:10 22:34:34 33° 266° (W) 22:40:53 435.675
BRITE-PL 04 Jul 22:30:37 22:32:33 12° 276° (W) 22:34:09 437.365/2234.400
CUBEBUG 2 04 Jul 22:34:54 22:39:09 64° 259° (WSW) 22:43:19 437.445
ZACube-1 04 Jul 22:35:29 22:39:41 82° 77° (ENE) 22:43:52 437.345
DELFI C3 04 Jul 22:36:46 22:40:46 81° 255° (WSW) 22:44:51 145.870
UKube-1 04 Jul 22:40:54 22:44:53 37° 68° (ENE) 22:48:55 .
50 SAT 04 Jul 22:40:55 22:43:53 22° 66° (ENE) 22:46:56 437.505
Oscar 11 04 Jul 22:43:31 22:47:42 50° 261° (W) 22:51:56 145.826/435.025
DOVE 4 04 Jul 22:45:04 22:48:05 16° 271° (W) 22:50:51 437.250
HUMSAT D 04 Jul 22:51:21 22:55:20 54° 72° (ENE) 22:59:21 437.325/437.525
COMPASS 1 04 Jul 22:51:46 22:54:43 18° 270° (W) 22:57:36 437.405
ANTELSAT 04 Jul 22:57:12 22:58:27 11° 86° (E) 22:59:58 437.575/2403.000
AISAT 04 Jul 22:59:37 23:03:41 36° 68° (ENE) 23:07:48 437.250
PCSat 04 Jul 23:03:13 23:06:28 16° 24° (NNE) 23:09:48 145.827
TIGRISAT 04 Jul 23:08:31 23:10:49 14° 88° (E) 23:13:18 435.000
FUNcube-1 04 Jul 23:11:47 23:15:47 43° 262° (W) 23:19:46 145.935
CUBEBUG 1 04 Jul 23:16:29 23:20:19 30° 66° (ENE) 23:24:12 437.445
AUBIESAT-1 04 Jul 23:25:27 23:29:26 46° 295° (WNW) 23:33:42 437.475
UWE-3 04 Jul 23:26:08 23:29:39 25° 267° (W) 23:33:06 435.000/436.395/437.385
SO-50 04 Jul 23:27:44 23:30:35 15° 16° (NNE) 23:33:30 436.795
CINEMA 3 04 Jul 23:29:40 23:31:03 11° 274° (W) 23:32:11 145.822/145.860
ESTCUBE 1 04 Jul 23:32:48 23:37:10 49° 70° (ENE) 23:41:35 437.505/2401.250
Cosmos 2499 04 Jul 23:37:28 23:45:03 58° 267° (W) 23:53:11 435.465 / 435.565
GONETS M04 04 Jul 23:46:51 23:51:19 15° 287° (WNW) 23:55:16
UNISAT 6 04 Jul 23:47:13 23:51:12 34° 96° (E) 23:55:18 437.425
VELOX 1 04 Jul 23:48:18 23:52:47 81° 256° (WSW) 23:57:17 145.980
QB50P2 04 Jul 23:49:49 23:52:27 16° 89° (E) 23:55:13 145.880/145.840
POPSAT HIP 1 04 Jul 23:50:29 23:53:03 16° 89° (E) 23:55:47 437.405
DX 1 04 Jul 23:56:38 00:00:44 38° 262° (W) 00:04:50 434.975-435.025
M-CUBED/EXP-1 PRIME 05 Jul 00:00:51 00:04:00 21° 301° (WNW) 00:07:14 437.505
50 SAT 05 Jul 00:14:50 00:18:22 34° 263° (W) 00:21:54 437.505
ZACube-1 05 Jul 00:15:33 00:16:43 11° 275° (W) 00:17:39 437.345
SPROUT 05 Jul 00:16:40 00:20:35 36° 68° (ENE) 00:24:33 437.525
UKube-1 05 Jul 00:17:26 00:21:07 26° 266° (W) 00:24:46 .
QB50P1 05 Jul 00:28:31 00:32:27 38° 97° (E) 00:36:24 145.935-145.965
HUMSAT D 05 Jul 00:28:52 00:31:28 16° 271° (W) 00:33:56 437.325/437.525
ANTELSAT 05 Jul 00:31:32 00:35:56 87° 288° (WNW) 00:40:24 437.575/2403.000
AISAT 05 Jul 00:36:28 00:40:21 28° 266° (W) 00:44:10 437.250
NANOSAT C BR1 05 Jul 00:42:27 00:46:34 52° 100° (E) 00:50:41 145.865
TIGRISAT 05 Jul 00:43:45 00:48:05 69° 286° (WNW) 00:52:29 435.000
PCSat 05 Jul 00:45:59 00:51:16 48° 47° (NE) 00:56:31 145.827
DUCHIFAT 1 05 Jul 00:49:12 00:53:22 61° 101° (E) 00:57:31 145.980
CUBEBUG 1 05 Jul 00:52:33 00:56:37 34° 264° (W) 01:00:39 437.445
POLYITAN 1 05 Jul 00:54:52 00:59:06 73° 103° (ESE) 01:03:18 437.675
TISAT 1 05 Jul 00:56:09 01:00:19 61° 73° (ENE) 01:04:31 437.305
BUGSAT 1 05 Jul 01:04:09 01:08:11 58° 101° (E) 01:12:10 437.445
SO-50 05 Jul 01:07:50 01:12:29 38° 39° (NE) 01:17:07 436.795
ESTCUBE 1 05 Jul 01:10:49 01:14:20 21° 269° (W) 01:17:46 437.505/2401.250
UNISAT 6 05 Jul 01:24:09 01:27:56 28° 293° (WNW) 01:31:42 437.425
QB50P2 05 Jul 01:24:36 01:28:45 55° 288° (WNW) 01:32:52 145.880/145.840
POPSAT HIP 1 05 Jul 01:25:12 01:29:20 56° 288° (WNW) 01:33:27 437.405
Cosmos 2499 05 Jul 01:34:07 01:36:50 12° 286° (WNW) 01:39:02 435.465 / 435.565
BEESAT 05 Jul 01:35:15 01:39:27 32° 65° (ENE) 01:43:43 436.000
Cosmos 2491 05 Jul 01:45:44 01:52:56 28° 59° (ENE) 02:00:17 435.465 / 435.565
SWISSCUBE 05 Jul 01:50:30 01:55:03 46° 69° (ENE) 01:59:40 437.505
SPROUT 05 Jul 01:53:05 01:56:46 26° 267° (W) 02:00:23 437.525
ITUPSAT 1 05 Jul 01:56:02 02:00:37 47° 69° (ENE) 02:05:16 437.325
QB50P1 05 Jul 02:04:43 02:08:10 24° 295° (WNW) 02:11:32 145.935-145.965
ANTELSAT 05 Jul 02:10:15 02:12:08 12° 302° (WNW) 02:13:51 437.575/2403.000
NANOSAT C BR1 05 Jul 02:19:05 02:22:04 19° 298° (WNW) 02:24:57 145.865
DUCHIFAT 1 05 Jul 02:26:03 02:28:47 17° 299° (WNW) 02:31:22 145.980
YUBILEINY 05 Jul 02:28:34 02:32:59 16° 74° (ENE) 02:37:55 435.215
PCSat 05 Jul 02:29:43 02:34:33 33° 247° (WSW) 02:39:20 145.827
POLYITAN 1 05 Jul 02:32:09 02:34:30 14° 300° (WNW) 02:36:43 437.675
TISAT 1 05 Jul 02:33:56 02:36:32 15° 271° (W) 02:38:59 437.305
BUGSAT 1 05 Jul 02:40:40 02:43:16 16° 299° (WNW) 02:45:44 437.445
KKS-1 05 Jul 02:41:09 02:44:48 26° 65° (ENE) 02:48:31 437.445
SO-50 05 Jul 02:48:25 02:53:09 43° 239° (WSW) 02:57:45 436.795
AIST 1 05 Jul 02:48:27 02:52:14 28° 70° (ENE) 02:56:02
RS-15 05 Jul 02:55:22 03:05:32 49° 114° (ESE) 03:16:10 29.354- 29.394
Oscar 19 05 Jul 03:11:22 03:16:31 68° 102° (ESE) 03:21:38 437.125/150
BEESAT 05 Jul 03:12:50 03:17:15 36° 264° (W) 03:21:40 436.000
Gurwin Techsat 1B 05 Jul 03:21:49 03:26:21 28° 93° (E) 03:30:56 435.225
ITAMSAT 1 05 Jul 03:24:35 03:29:01 28° 93° (E) 03:33:30 435.822/435.867
SWISSCUBE 05 Jul 03:29:12 03:33:09 25° 268° (W) 03:37:02 437.505
STARS 05 Jul 03:31:03 03:35:16 47° 70° (ENE) 03:39:31 437.465
ITUPSAT 1 05 Jul 03:34:50 03:38:46 24° 268° (W) 03:42:38 437.325
Cosmos 2491 05 Jul 03:42:09 03:50:57 79° 263° (W) 03:59:38 435.465 / 435.565
JAS-2 05 Jul 04:13:48 04:19:28 31° 93° (E) 04:25:48 435.910
KKS-1 05 Jul 04:17:04 04:21:17 40° 262° (W) 04:25:29 437.445
YUBILEINY 05 Jul 04:19:45 04:28:21 71° 95° (E) 04:37:00 435.215
AIST 1 05 Jul 04:26:01 04:29:56 31° 269° (W) 04:33:44
MOZHAYETS 4 05 Jul 04:38:44 04:43:00 41° 69° (ENE) 04:47:22
AO-7 05 Jul 04:41:38 04:48:34 29° 91° (E) 04:55:40 29.400- 29.500
Oscar 19 05 Jul 04:51:39 04:55:26 21° 300° (WNW) 04:59:05 437.125/150
Gurwin Techsat 1B 05 Jul 05:01:27 05:06:34 47° 292° (WNW) 05:11:37 435.225
ITAMSAT 1 05 Jul 05:03:44 05:08:45 46° 292° (WNW) 05:13:42 435.822/435.867
HORYU 2 05 Jul 05:05:25 05:09:32 36° 97° (E) 05:13:41 437.375
RS-15 05 Jul 05:06:52 05:17:46 63° 320° (NW) 05:29:07 29.354- 29.394
STARS 05 Jul 05:08:37 05:11:59 21° 269° (W) 05:15:15 437.465
CUBESAT XI-V 05 Jul 05:10:57 05:12:02 11° 55° (NE) 05:13:20 437.345
Cosmos 2491 05 Jul 05:40:50 05:46:30 19° 285° (WNW) 05:51:45 435.465 / 435.565
Cosmos 2504 05 Jul 05:45:33 05:51:02 27° 84° (E) 05:56:42 435.465 / 435.565
JAS-2 05 Jul 05:58:31 06:04:53 61° 290° (WNW) 06:12:00 435.910
MOZHAYETS 4 05 Jul 06:16:35 06:20:25 25° 268° (W) 06:24:12
YUBILEINY 05 Jul 06:18:27 06:26:03 31° 298° (WNW) 06:33:32 435.215
STRAND 1 05 Jul 06:20:13 06:23:54 21° 59° (ENE) 06:27:43 437.568
AO-7 05 Jul 06:33:51 06:42:14 75° 293° (WNW) 06:50:33 29.400- 29.500
PRISM 05 Jul 06:39:42 06:42:54 22° 63° (ENE) 06:46:11 437.425
Cubesat XI-IV 05 Jul 06:40:18 06:43:03 14° 85° (E) 06:46:02 437.490
HORYU 2 05 Jul 06:42:15 06:46:05 28° 295° (WNW) 06:49:53 437.375
CUBESAT XI-V 05 Jul 06:43:59 06:48:39 67° 73° (ENE) 06:53:23 437.345
BEESAT 2 05 Jul 07:13:01 07:13:43 10° 110° (ESE) 07:14:39 435.950
RS-15 05 Jul 07:22:46 07:32:51 36° 351° (N) 07:43:20 29.354- 29.394
DANDE 05 Jul 07:23:32 07:24:52 11° 87° (E) 07:26:31 436.750
Cosmos 2504 05 Jul 07:35:57 07:42:46 61° 284° (WNW) 07:49:40 435.465 / 435.565
CUTE-I 05 Jul 07:44:13 07:49:25 48° 99° (E) 07:54:36 437.470
M-CUBED/EXP-1 PRIME 05 Jul 07:45:14 07:46:47 13° 54° (NE) 07:48:30 437.505
JAS-2 05 Jul 07:45:36 07:49:03 15° 308° (NW) 07:52:22 435.910
CUSAT 1 05 Jul 07:53:13 07:57:49 24° 94° (E) 08:01:41 437.405
STRAND 1 05 Jul 07:57:31 08:02:39 69° 257° (WSW) 08:07:50 437.568
PRISM 05 Jul 08:14:06 08:18:06 43° 261° (W) 08:22:08 437.425
Cubesat XI-IV 05 Jul 08:18:36 08:24:01 90° 320° (NW) 08:29:24 437.490
CUBESAT XI-V 05 Jul 08:23:34 08:26:38 16° 273° (W) 08:29:33 437.345
VERMONT LUNAR 05 Jul 08:25:46 08:26:14 10° 159° (SSE) 08:26:45 437.305
AO-7 05 Jul 08:27:40 08:33:53 23° 315° (NW) 08:39:51 29.400- 29.500
BEESAT 3 05 Jul 08:33:39 08:37:44 76° 126° (SE) 08:41:52 437.485
AIST 2 05 Jul 08:34:30 08:37:31 19° 114° (ESE) 08:40:38 435.215
O/OREOS (USA 219) 05 Jul 08:36:11 08:40:38 76° 114° (ESE) 08:45:07 437.305
AUBIESAT-1 05 Jul 08:42:48 08:46:00 43° 64° (ENE) 08:49:23 437.475
BEESAT 2 05 Jul 08:47:02 08:51:10 82° 125° (SE) 08:55:19 435.950
BRITE-PL 05 Jul 08:49:53 08:53:21 23° 91° (E) 08:56:45 437.365/2234.400
GONETS M04 05 Jul 08:57:34 09:04:53 32° 83° (E) 09:12:23
DANDE 05 Jul 09:00:51 09:07:43 66° 99° (E) 09:12:53 436.750
DOVE 4 05 Jul 09:02:25 09:03:47 12° 86° (E) 09:05:21 437.250
CUTE 1.7 + AOD 2 05 Jul 09:08:41 09:10:35 13° 86° (E) 09:12:41 437.475
CANX-2 05 Jul 09:11:42 09:14:13 15° 88° (E) 09:16:52 2200.000
M-CUBED/EXP-1 PRIME 05 Jul 09:17:54 09:21:11 59° 253° (WSW) 09:24:40 437.505
CUTE-I 05 Jul 09:24:42 09:29:19 29° 298° (WNW) 09:33:50 437.470
Cosmos 2504 05 Jul 09:33:48 09:36:53 13° 310° (NW) 09:39:38 435.465 / 435.565
CUSAT 1 05 Jul 09:34:28 09:40:22 51° 285° (WNW) 09:44:48 437.405
RS-15 05 Jul 09:38:08 09:48:51 43° 24° (NNE) 10:00:07 29.354- 29.394
ISS 05 Jul 09:38:33 09:41:42 50° 150° (SSE) 09:44:52 145.825
CINEMA 3 05 Jul 09:40:59 09:43:08 14° 88° (E) 09:45:29 145.822/145.860
HO-68 05 Jul 09:50:30 09:57:12 42° 97° (E) 10:03:56 435.675
SEEDS 05 Jul 09:54:12 09:57:57 30° 94° (E) 10:01:45 437.485
GOMX 1 05 Jul 09:58:24 10:02:39 69° 101° (ESE) 10:06:46 467.674
ANTELSAT 05 Jul 09:59:30 10:02:09 17° 61° (ENE) 10:04:56 437.575/2403.000
Cubesat XI-IV 05 Jul 10:00:01 10:03:28 17° 304° (NW) 10:06:44 437.490
VERMONT LUNAR 05 Jul 10:00:11 10:02:27 19° 175° (S) 10:04:45 437.305
AAUSAT CUBESAT 2 05 Jul 10:03:10 10:06:42 26° 93° (E) 10:10:16 437.432
TIGRISAT 05 Jul 10:10:56 10:14:01 20° 63° (ENE) 10:17:12 435.000
AIST 2 05 Jul 10:11:29 10:15:43 61° 312° (NW) 10:19:59 435.215
BEESAT 3 05 Jul 10:13:00 10:16:09 21° 327° (NNW) 10:19:18 437.485
DUCHIFAT 1 05 Jul 10:13:48 10:13:58 10° 57° (ENE) 10:14:20 145.980
DELFI C3 05 Jul 10:14:22 10:15:24 11° 86° (E) 10:16:38 145.870
O/OREOS (USA 219) 05 Jul 10:17:34 10:20:39 18° 315° (NW) 10:23:39 437.305
POLYITAN 1 05 Jul 10:18:37 10:20:10 12° 58° (ENE) 10:21:53 437.675
AUBIESAT-1 05 Jul 10:19:08 10:21:07 14° 265° (W) 10:23:03 437.475
ZACube-1 05 Jul 10:22:03 10:23:33 12° 86° (E) 10:25:16 437.345
CUBEBUG 2 05 Jul 10:22:39 10:25:37 19° 91° (E) 10:28:45 437.445
BEESAT 2 05 Jul 10:26:36 10:29:45 20° 328° (NNW) 10:32:50 435.950
